• In Portugal
  • List of Countries
  • For 7 days
  • Water Temperature
  • Satellite Maps
  • Weather Map
  • Weather Widgets
  • user-avatar
    Login

    Hourly Weather Cacheu

    Today, 18 August, Friday

    Time Temperature Precipitation Wind Pressure Humidity
    00:00 +28°C° 0 mm 2 mps 759 mmHg 87%
    01:00 +28°C° 0 mm 2 mps 758 mmHg 87%
    02:00 +27°C° 0 mm 2 mps 758 mmHg 87%
    03:00 +27°C° 0 mm 2 mps 758 mmHg 88%
    04:00 +27°C° 0 mm 2 mps 758 mmHg 89%
    05:00 +27°C° 0 mm 3 mps 758 mmHg 89%
    06:00 +28°C° 0 mm 3 mps 758 mmHg 85%
    07:00 +29°C° 0 mm 4 mps 758 mmHg 82%
    08:00 +30°C° 0 mm 4 mps 758 mmHg 78%
    09:00 +30°C° 0 mm 4 mps 758 mmHg 76%
    10:00 +32°C° 0 mm 5 mps 758 mmHg 74%
    11:00 +32°C° 0 mm 5 mps 758 mmHg 72%
    12:00 +33°C° 0 mm 5 mps 757 mmHg 71%
    13:00 +33°C° 0 mm 5 mps 757 mmHg 70%
    14:00 +33°C° 0 mm 5 mps 756 mmHg 69%
    15:00 +33°C° 0 mm 5 mps 756 mmHg 71%
    16:00 +33°C° 0 mm 5 mps 756 mmHg 72%
    17:00 +32°C° 0 mm 5 mps 755 mmHg 73%
    18:00 +30°C° 0 mm 4 mps 756 mmHg 77%
    19:00 +30°C° 0 mm 4 mps 756 mmHg 80%
    20:00 +29°C° 0 mm 4 mps 756 mmHg 84%
    21:00 +29°C° 0 mm 4 mps 756 mmHg 85%
    22:00 +28°C° 0 mm 3 mps 756 mmHg 86%
    23:00 +28°C° 0 mm 3 mps 757 mmHg 87%

    Tomorrow, 19 August, Saturday

    Time Temperature Precipitation Wind Pressure Humidity
    00:00 +28°C° 0.1 mm 3 mps 756 mmHg 87%
    01:00 +28°C° 0.1 mm 3 mps 756 mmHg 86%
    02:00 +28°C° 0.1 mm 4 mps 755 mmHg 86%
    03:00 +28°C° 0.1 mm 4 mps 755 mmHg 86%
    04:00 +28°C° 0.1 mm 4 mps 755 mmHg 86%
    05:00 +28°C° 0.1 mm 4 mps 755 mmHg 86%
    06:00 +29°C° 0 mm 5 mps 755 mmHg 84%
    07:00 +29°C° 0 mm 5 mps 755 mmHg 81%
    08:00 +30°C° 0 mm 6 mps 755 mmHg 79%
    09:00 +30°C° 0.1 mm 6 mps 756 mmHg 77%
    10:00 +32°C° 0.1 mm 5 mps 756 mmHg 76%
    11:00 +32°C° 0.1 mm 5 mps 756 mmHg 74%
    12:00 +33°C° 0.2 mm 5 mps 756 mmHg 72%
    13:00 +33°C° 0.2 mm 6 mps 755 mmHg 69%
    14:00 +34°C° 0.2 mm 6 mps 755 mmHg 67%
    15:00 +33°C° 0.1 mm 6 mps 755 mmHg 70%
    16:00 +32°C° 0.1 mm 5 mps 755 mmHg 72%
    17:00 +32°C° 0.1 mm 5 mps 754 mmHg 75%
    18:00 +30°C° 0 mm 5 mps 755 mmHg 78%
    19:00 +29°C° 0 mm 5 mps 755 mmHg 81%
    20:00 +29°C° 0 mm 4 mps 755 mmHg 83%
    21:00 +28°C° 0 mm 4 mps 756 mmHg 84%
    22:00 +28°C° 0 mm 4 mps 756 mmHg 84%
    23:00 +28°C° 0 mm 3 mps 756 mmHg 85%

    Day after tomorrow, 20 August, Sunday

    Time Temperature Precipitation Wind Pressure Humidity
    00:00 +28°C° 0 mm 3 mps 756 mmHg 85%
    01:00 +28°C° 0 mm 3 mps 755 mmHg 86%
    02:00 +28°C° 0 mm 3 mps 755 mmHg 87%
    03:00 +28°C° 0.1 mm 3 mps 755 mmHg 86%
    04:00 +28°C° 0.1 mm 3 mps 755 mmHg 86%
    05:00 +28°C° 0.1 mm 2 mps 756 mmHg 86%
    06:00 +29°C° 0.1 mm 3 mps 756 mmHg 83%
    07:00 +29°C° 0.1 mm 3 mps 756 mmHg 80%
    08:00 +30°C° 0.1 mm 3 mps 757 mmHg 78%
    09:00 +32°C° 0.1 mm 4 mps 757 mmHg 73%
    10:00 +33°C° 0.1 mm 4 mps 757 mmHg 69%
    11:00 +34°C° 0.1 mm 5 mps 757 mmHg 64%
    12:00 +33°C° 1 mm 5 mps 757 mmHg 66%
    13:00 +33°C° 1 mm 5 mps 756 mmHg 68%
    14:00 +33°C° 1 mm 5 mps 756 mmHg 71%
    15:00 +32°C° 1.3 mm 5 mps 756 mmHg 74%
    16:00 +30°C° 1.3 mm 5 mps 756 mmHg 78%
    17:00 +29°C° 1.3 mm 5 mps 756 mmHg 82%
    18:00 +29°C° 1.4 mm 4 mps 757 mmHg 85%
    19:00 +28°C° 1.4 mm 4 mps 757 mmHg 87%
    20:00 +27°C° 1.4 mm 4 mps 758 mmHg 90%
    21:00 +27°C° 2.7 mm 4 mps 758 mmHg 89%
    22:00 +27°C° 2.7 mm 4 mps 759 mmHg 89%
    23:00 +27°C° 2.7 mm 4 mps 759 mmHg 89%

    21 August, Monday

    Time Temperature Precipitation Wind Pressure Humidity
    00:00 +27°C° 3.7 mm 5 mps 759 mmHg 89%
    01:00 +27°C° 3.7 mm 5 mps 758 mmHg 88%
    02:00 +27°C° 3.7 mm 5 mps 758 mmHg 88%
    03:00 +27°C° 2.8 mm 5 mps 758 mmHg 88%
    04:00 +27°C° 2.8 mm 4 mps 758 mmHg 89%
    05:00 +27°C° 2.8 mm 4 mps 758 mmHg 89%
    06:00 +27°C° 2.1 mm 4 mps 758 mmHg 88%
    07:00 +28°C° 2.1 mm 5 mps 759 mmHg 87%
    08:00 +28°C° 2.1 mm 5 mps 759 mmHg 86%
    09:00 +29°C° 1.5 mm 5 mps 759 mmHg 84%
    10:00 +29°C° 1.5 mm 5 mps 759 mmHg 83%
    11:00 +30°C° 1.5 mm 5 mps 759 mmHg 81%
    12:00 +30°C° 1.8 mm 5 mps 759 mmHg 81%
    13:00 +30°C° 1.8 mm 6 mps 758 mmHg 80%
    14:00 +30°C° 1.8 mm 6 mps 758 mmHg 80%
    15:00 +30°C° 1.9 mm 5 mps 758 mmHg 82%
    16:00 +29°C° 1.9 mm 5 mps 758 mmHg 84%
    17:00 +28°C° 1.9 mm 5 mps 758 mmHg 87%
    18:00 +28°C° 1.9 mm 4 mps 758 mmHg 88%
    19:00 +27°C° 1.9 mm 4 mps 759 mmHg 89%
    20:00 +27°C° 1.9 mm 4 mps 760 mmHg 91%
    21:00 +27°C° 1.3 mm 4 mps 760 mmHg 91%
    22:00 +27°C° 1.3 mm 4 mps 760 mmHg 91%
    23:00 +27°C° 1.3 mm 4 mps 760 mmHg 91%

    22 August, Tuesday

    Time Temperature Precipitation Wind Pressure Humidity
    00:00 +27°C° 1.5 mm 4 mps 760 mmHg 91%
    01:00 +27°C° 1.5 mm 4 mps 759 mmHg 91%
    02:00 +27°C° 1.5 mm 4 mps 758 mmHg 91%
    03:00 +27°C° 2.3 mm 4 mps 759 mmHg 91%
    04:00 +26°C° 2.3 mm 4 mps 759 mmHg 91%
    05:00 +26°C° 2.3 mm 4 mps 759 mmHg 91%
    06:00 +27°C° 2.7 mm 4 mps 759 mmHg 91%
    07:00 +27°C° 2.7 mm 3 mps 760 mmHg 91%
    08:00 +27°C° 2.7 mm 3 mps 760 mmHg 91%
    09:00 +27°C° 2.4 mm 3 mps 760 mmHg 90%
    10:00 +28°C° 2.4 mm 3 mps 760 mmHg 89%
    11:00 +28°C° 2.4 mm 3 mps 760 mmHg 88%
    12:00 +28°C° 2.3 mm 3 mps 759 mmHg 89%
    13:00 +28°C° 2.3 mm 3 mps 759 mmHg 89%
    14:00 +28°C° 2.3 mm 3 mps 758 mmHg 90%
    15:00 +27°C° 1.5 mm 3 mps 758 mmHg 90%
    16:00 +27°C° 1.5 mm 3 mps 758 mmHg 91%
    17:00 +27°C° 1.5 mm 2 mps 758 mmHg 92%
    18:00 +27°C° 2 mm 2 mps 758 mmHg 93%
    19:00 +27°C° 2 mm 2 mps 759 mmHg 93%
    20:00 +26°C° 2 mm 2 mps 759 mmHg 94%
    21:00 +26°C° 2.6 mm 2 mps 759 mmHg 94%
    22:00 +26°C° 2.6 mm 2 mps 759 mmHg 95%
    23:00 +26°C° 2.6 mm 2 mps 759 mmHg 95%

    23 August, Wednesday

    Time Temperature Precipitation Wind Pressure Humidity
    00:00 +26°C° 3 mm 2 mps 759 mmHg 95%
    01:00 +26°C° 3 mm 2 mps 758 mmHg 95%
    02:00 +26°C° 3 mm 2 mps 758 mmHg 95%
    03:00 +26°C° 2.1 mm 2 mps 758 mmHg 95%
    04:00 +26°C° 2.1 mm 2 mps 758 mmHg 95%
    05:00 +26°C° 2.1 mm 2 mps 758 mmHg 95%
    06:00 +26°C° 1.4 mm 2 mps 758 mmHg 93%
    07:00 +27°C° 1.4 mm 2 mps 758 mmHg 91%
    08:00 +27°C° 1.4 mm 2 mps 758 mmHg 90%
    09:00 +28°C° 2 mm 2 mps 758 mmHg 87%
    10:00 +28°C° 2 mm 3 mps 758 mmHg 85%
    11:00 +29°C° 2 mm 3 mps 758 mmHg 83%
    12:00 +29°C° 2.5 mm 3 mps 758 mmHg 85%
    13:00 +28°C° 2.5 mm 3 mps 757 mmHg 86%
    14:00 +28°C° 2.5 mm 3 mps 757 mmHg 88%
    15:00 +27°C° 2.6 mm 3 mps 757 mmHg 89%
    16:00 +27°C° 2.6 mm 3 mps 757 mmHg 90%
    17:00 +27°C° 2.6 mm 3 mps 757 mmHg 91%
    18:00 +27°C° 1.6 mm 3 mps 757 mmHg 92%
    19:00 +26°C° 1.6 mm 3 mps 758 mmHg 93%
    20:00 +26°C° 1.6 mm 3 mps 758 mmHg 93%
    21:00 +26°C° 0.9 mm 3 mps 758 mmHg 93%
    22:00 +26°C° 0.9 mm 3 mps 758 mmHg 93%
    23:00 +26°C° 0.9 mm 3 mps 758 mmHg 94%
    Show more